カタログに戻る

SL-8 DEB *

運用中LEO
NORAD 14813·DEBRIS·🇷🇺 Russia

打ち上げ Aug 3, 1983 から Plesetsk Cosmodrome

Loading…

次のパス (今後24時間)

TLE

最新Source: Space-Track

元期: Sep 14, 2026, 08:41 UTC

1 14813U 83079C   26257.36247597  .00000705  00000-0  19070-3 0  9991
2 14813  74.0309 117.1814 0014427  90.4530 323.9529 14.49521197356149

AllMySatでSL-8 DEB *をリアルタイム追跡

Download on the App Store